Weather in Ubeda

Spain     38°00′53″N   3°22′18″W
temp.,
°C
wind,
m/s
gust,
m/s
humid.,
%
clouds,
%
prec.,
mm/h
press.,
hPa
HPBL,
m
5 march, fri
fri501:00+8sse2272100 0.0 101827
04:00+7se2277100 0.0 101725
07:00+6se2280100 0.0 101726
10:00+10se3461100 0.0 1016418
13:00+15sse2343100 0.0 1015987
16:00+17s2338100 0.0 10141576
19:00+13ssw3556100 0.0 1015101
22:00+9ne0192100 0.0 101722
6 march, sat
sat601:00+8se118888 0.0 101822
04:00+7se128816 0.0 101822
07:00+6se128921 0.0 101822
10:00+11se126764 0.0 1019306
13:00+16se134882 0.0 10191122
16:00+14sse8965100 0.3 1017593
19:00+11ese127699 1.3 101756
22:00+9sse128197 0.0 101924
7 march, sun
sun701:00+9s118399 0.0 101925
04:00+10ese1280100 0.0 101840
07:00+9ene1283100 0.1 101840
10:00+10ne1180100 0.6 1018217
13:00+11nnw2279100 1.0 1018268
16:00+15nnw225766 0.1 1015938
19:00+12nw127035 0.3 101623
22:00+9wsw118838 1.5 101722
8 march, mon
mon801:00+8s119268 2.6 101722
04:00+7wnw129647 0.6 101631
07:00+9wnw129673 1.3 1016173
10:00+10wnw128998 0.6 1016274
13:00+13wnw347191 1.0 1015720
16:00+16wnw56503 0.4 10131580
19:00+12wnw36702 1.8 1014143
22:00+9wsw238379 0.9 101650
9 march, tue
tue901:00+7wnw229074 1.1 101767
04:00+5n119222 0.0 101722
07:00+4nnw119411 0.0 101822
10:00+9nw11790 0.0 1019333
13:00+13wnw21611 0.1 1019920
16:00+15nw33480 0.3 10181495
19:00+12nnw34610 0.3 102060
22:00+9nnw11727 0.0 102322